FW3021 Weather Reports


time (UTC)temp
C
wind
direction
speed
KPH
gust
KPH
rain 1hr
cm
rain 24hr
cm
rain mn
cm
humidity
%
barometer
mb
20260505060016 2 0.0 6.4 0.00 0.10 0.00 68 1001.5
20260505055016 2 0.0 6.4 0.00 0.10 0.00 67 1001.5
20260505054016 2 0.0 3.2 0.00 0.10 0.00 67 1001.4
20260505053015 2 270 3.2 9.7 0.00 0.10 0.00 68 1001.3
20260505052017 2 293 1.6 8.0 0.00 0.10 0.00 69 1001.3
20260505051017 2 293 1.6 6.4 0.00 0.10 0.00 70 1001.2
20260505041016 1 0.0 3.2 0.03 0.10 0.10 72 1001.1
20260505040015 1 0.0 3.2 0.00 0.08 0.08 71 1001.1
20260505035016 1 0.0 0.0 0.00 0.08 0.08 71 1001.0
20260505034015 1 0.0 0.0 0.00 0.08 0.08 70 1001.0
20260505033035 2 0.0 0.0 0.03 0.08 0.08 69 1001.0
20260505032015 2 0.0 0.0 0.03 0.08 0.08 69 1000.9
20260505031017 2 0.0 0.0 0.03 0.08 0.08 69 1000.9
20260505030017 2 45 1.6 4.8 0.03 0.08 0.08 69 1000.9
20260505025018 2 23 1.6 8.0 0.03 0.08 0.08 68 1000.7
20260505024038 3 158 4.8 14.5 0.03 0.08 0.08 67 1000.8
20260505023017 3 315 11.3 25.7 0.00 0.05 0.05 63 1001.2
20260505022017 5 315 6.4 14.5 0.00 0.05 0.05 58 1000.5
20260505021017 5 270 3.2 11.3 0.00 0.05 0.05 58 999.9
20260505020017 5 338 4.8 14.5 0.00 0.05 0.05 58 999.5
20260505015017 5 203 1.6 9.7 0.00 0.05 0.05 57 999.4
20260505014037 5 248 4.8 24.1 0.00 0.05 0.05 57 999.4
20260505013015 5 293 4.8 14.5 0.00 0.05 0.05 56 999.1
20260505012017 5 203 6.4 24.1 0.00 0.05 0.05 56 999.0
20260505011017 5 225 4.8 16.1 0.00 0.05 0.05 56 998.8
20260505010037 6 203 6.4 17.7 0.00 0.05 0.05 56 998.7
20260505005037 6 0 9.7 24.1 0.00 0.05 0.05 56 998.8
20260505004017 6 248 6.4 22.5 0.00 0.05 0.05 54 998.6
20260505003017 6 225 9.7 33.8 0.00 0.05 0.05 55 998.7
20260505002017 6 203 6.4 19.3 0.00 0.05 0.05 56 998.8
20260505001017 6 225 4.8 12.9 0.00 0.05 0.05 54 998.5
20260505000017 7 225 9.7 24.1 0.00 0.05 0.05 52 998.4
20260504235037 7 225 6.4 19.3 0.00 0.05 0.05 53 998.2
20260504234017 6 225 4.8 19.3 0.00 0.05 0.05 57 998.2
20260504233017 6 338 6.4 24.1 0.00 0.05 0.05 58 998.2
20260504232017 7 315 11.3 33.8 0.00 0.05 0.05 56 998.5
20260504231017 8 203 6.4 16.1 0.00 0.05 0.05 46 997.8
20260504230037 8 225 6.4 20.9 0.00 0.05 0.05 48 997.5
20260504225017 8 315 8.0 29.0 0.00 0.05 0.05 49 997.4
20260504224017 8 338 9.7 25.7 0.00 0.05 0.05 51 997.3
20260504223017 9 225 6.4 17.7 0.00 0.05 0.05 48 996.9
20260504222037 10 203 8.0 30.6 0.00 0.05 0.05 49 996.7
20260504221017 9 270 9.7 27.4 0.00 0.05 0.05 46 996.5
20260504220017 8 338 8.0 24.1 0.00 0.05 0.05 55 996.4
20260504215037 10 315 14.5 37.0 0.00 0.05 0.05 50 996.9
20260504214017 10 248 8.0 27.4 0.00 0.05 0.05 48 996.1
20260504213017 9 338 9.7 43.5 0.03 0.05 0.05 49 996.0
20260504212016 11 315 11.3 27.4 0.03 0.05 0.05 39 995.8
20260504211037 11 225 8.0 20.9 0.03 0.05 0.05 42 995.5
20260504210057 11 225 8.0 27.4 0.03 0.05 0.05 48 995.5
20260504205016 10 225 8.0 16.1 0.03 0.05 0.05 53 995.5
20260504204017 8 225 4.8 14.5 0.03 0.05 0.05 59 995.5
20260504203017 10 338 17.7 38.6 0.00 0.03 0.03 50 995.5
20260504202037 11 225 12.9 32.2 0.00 0.03 0.03 45 995.1
20260504201017 10 315 11.3 33.8 0.00 0.03 0.03 52 995.0
20260504200016 9 338 9.7 35.4 0.00 0.03 0.03 59 994.9
20260504195016 11 338 12.9 33.8 0.00 0.03 0.03 48 994.8
20260504194017 11 248 8.0 17.7 0.00 0.03 0.03 46 994.2
20260504193017 10 315 9.7 30.6 0.00 0.03 0.03 56 994.1
20260504192016 11 315 11.3 35.4 0.00 0.03 0.03 47 994.3
20260504191016 11 0 12.9 30.6 0.00 0.03 0.03 48 994.0
20260504190016 10 338 11.3 35.4 0.00 0.03 0.03 51 993.9
20260504185016 12 338 9.7 25.7 0.00 0.03 0.03 46 994.0
20260504184016 12 338 12.9 33.8 0.00 0.03 0.03 40 993.3
20260504183016 13 338 11.3 30.6 0.00 0.03 0.03 39 993.2
20260504182036 12 225 8.0 25.7 0.00 0.03 0.03 42 993.1
20260504181016 11 203 8.0 33.8 0.00 0.03 0.03 49 993.1
20260504180016 11 315 17.7 38.6 0.00 0.03 0.03 47 993.3
20260504175016 12 315 14.5 43.5 0.00 0.03 0.03 40 992.6
20260504174036 11 338 9.7 40.2 0.00 0.03 0.03 46 992.7
20260504173016 11 315 12.9 30.6 0.00 0.03 0.03 45 992.3
20260504172016 11 225 8.0 33.8 0.00 0.03 0.03 48 992.2
20260504171016 11 338 8.0 29.0 0.00 0.03 0.03 49 992.1
20260504151016 11 225 8.0 24.1 0.03 0.03 0.03 53 990.1
20260504141016 11 225 3.2 9.7 0.00 0.00 0.00 57 989.8
20260504081017 7 293 1.6 6.4 0.00 0.00 0.00 52 989.9